Regional Weather Roundup
Issued by NWS

Home | Current Version | Previous Version | Text Only | Print | Product List | Glossary On
Versions: 1 2 3 4 5 6 7 8 9 10 11 12 13 14 15 16 17 18 19 20 21 22 23 24 25 26 27 28 29 30 31 32 33 34 35 36 37 38 39 40 41 42 43 44 45 46 47 48 49 50
000
ASUS46 KLOX 271312
RWRCA

SOUTHERN CALIFORNIA WEATHER ROUNDUP
NATIONAL WEATHER SERVICE OXNARD CALIFORNIA
500 AM PST FRI FEB 27 2015

NOTE: "FAIR" INDICATES FEW OR NO CLOUDS BELOW 12,000 FEET WITH NO
SIGNIFICANT WEATHER AND/OR OBSTRUCTIONS TO VISIBILITY.

  -  STATIONS PRECEEDED BY AN ASTERISK (*) ARE NOT NWS OR FAA
     STATIONS AND ARE NOT SUBJECT TO NWS AND FAA QUALITY CONTROL.

CAZ041-042-087-271400-
LA AND ORANGE COUNTY COASTAL AREAS


CITY           SKY/WX    TMP DP  RH WIND       PRES   REMARKS
L.A. DOWNTOWN  CLOUDY   N/A N/A N/A E3        29.82R
L.A. AIRPORT   MOCLDY    53  51  93 E3        29.83R
LONG BEACH     MOCLDY    55  50  83 CALM      29.82S

CITY           SKY/WX    TMP DP  RH WIND       PRES   REMARKS
AVALON           N/A     50 N/A N/A MISG        N/A
FULLERTON      CLOUDY    55  49  80 E3        29.82S
*GETTY CENTER    N/A     50  50 100 E2          N/A
HAWTHORNE      MOCLDY    57  52  83 E3        29.83R
*LEO CARRILLO    N/A     54  48  80 N7          N/A
*LOS ALAMITOS  CLOUDY    55  52  88 E5        29.82S
*REDONDO BEACH   N/A     49  46  89 CALM      29.83R
SANTA ANA      CLOUDY    58  48  69 SE5       29.82S
STA MONICA APT CLOUDY    56  51  84 CALM      29.83R
*UCLA            N/A     54  50  87 CALM      29.81R

$$

CAZ547-548-048-271400-
LA COUNTY VALLEYS AND INLAND EMPIRE


CITY           SKY/WX    TMP DP  RH WIND       PRES   REMARKS
BURBANK        CLOUDY    53  48  83 NW3       29.82R
VAN NUYS       CLOUDY    52  47  83 CALM      29.82R

CITY           SKY/WX    TMP DP  RH WIND       PRES   REMARKS
CORONA AIRPORT SUNNY     39  39 100 CALM      29.84R
*CHATSWORTH      N/A     54  50  85 NE1       29.83R
CHINO          CLEAR     47  45  93 CALM      29.84S
MARCH AFB      PTCLDY    44  44 100 CALM      29.82S
*NORTHRIDGE      N/A     54  48  82 NE1         N/A
ONTARIO        MOCLDY    49  47  93 NW5       29.82S
*PASADENA        N/A     54  52  94 CALM        N/A
RIVERSIDE      CLOUDY    49  45  86 CALM      29.83S
SAN BERNARDINO NOT AVBL
*SAN RAFAEL HI   N/A     48  48 100 SW2         N/A
*SAUGUS          N/A     55  35  46 SE8         N/A
*WHITEMAN AP   NOT AVBL
*WHITTIER HILL   N/A     52  52 100 E3          N/A
*WOODLAND HILL   N/A     48  45  87 S2          N/A

$$

CAZ054-055-271400-
LA AND SAN BERNARDINO COUNTY MOUNTAINS


CITY           SKY/WX    TMP DP  RH WIND       PRES   REMARKS
*BIG BEAR AIRP SUNNY     34  21  60 W8        29.85F WCI  27
MT WILSON NWS    N/A     43  19  39 MISG        N/A
SANDBERG       CLEAR     45  33  63 VRB5      29.85S

$$

CAZ028-029-059-060-099-271400-
ANTELOPE VALLEY AND SURROUNDING AREAS


CITY           SKY/WX    TMP DP  RH WIND       PRES   REMARKS
LANCASTER      CLEAR     51  36  56 W21       29.79S
PALMDALE       CLEAR     43  33  68 SE5       29.80S
*POPPY PARK      N/A     50  37  61 SW12        N/A

CITY           SKY/WX    TMP DP  RH WIND       PRES   REMARKS
29 PALMS       CLEAR     54  31  41 NW9       29.82F
BARSTOW/DAGGET CLEAR     47  34  60 W12       29.77S
BISHOP         PTCLDY    31  17  56 NW7       29.77S WCI  24
CHINA LAKE     CLEAR     41  36  82 CALM      29.75R
EDWARDS AFB    CLEAR     50  36  57 W13       29.75R
MOJAVE         FAIR      50  36  57 SW21G28   29.80R
NEEDLES        PTCLDY    55  31  39 NW7       29.74R
VICTORVILLE      N/A     45  32  61 S7        29.77F

$$

CAZ039-040-271400-
VENTURA AND SANTA BARBARA COUNTY COAST


CITY           SKY/WX    TMP DP  RH WIND       PRES   REMARKS
CAMARILLO      CLOUDY    54  49  83 N5        29.81R
OXNARD AIRPORT CLOUDY    53  48  83 CALM      29.81R
*POINT MUGU    CLOUDY    54  50  86 CALM      29.82R
SBA APT/GOLETA CLEAR     48  45  89 CALM      29.79S
*SANTA BARBARA   N/A     50  45  82 CALM      29.87S
*VENTURA         N/A     53  50  89 N6        29.84S

$$

CAZ044-045-271400-
VENTURA COUNTY VALLEYS


CITY           SKY/WX    TMP DP  RH WIND       PRES   REMARKS
*SIMI VALLEY     N/A     47  41  80 CALM      29.80R
*OJAI            N/A     39  37  90 CALM      29.78R
*FILLMORE        N/A     43  40  90 CALM      29.72R

$$

CAZ053-271400-
VENTURA COUNTY MOUNTAINS


CITY           SKY/WX    TMP DP  RH WIND       PRES   REMARKS
*LOCKWOOD VLY    N/A     28  27  93 MISG        N/A
*ROSE VALLEY     N/A     37  32  81 MISG        N/A

$$

CAZ034-035-036-271400-
CENTRAL COAST AND SANTA YNEZ VALLEY


CITY           SKY/WX    TMP DP  RH WIND       PRES   REMARKS
SAN LUIS OBISP MOCLDY    46  45  96 CALM      29.85R FOG
SANTA MARIA    FOG       48  46  93 CALM      29.85S VSB 1/4

CITY           SKY/WX    TMP DP  RH WIND       PRES   REMARKS
*CAL POLY SLO    N/A     48  48 100 NW2         N/A
*LOMPOC        MOCLDY    48  43  81 CALM      29.85S
*PISMO BEACH     N/A     50  47  92 NE1       29.86R
*SANTA YNEZ    CLOUDY    50  48  93 E3        29.85S

$$

CAZ037-038-051-271400-
SAN LUIS OBISPO COUNTY INTERIOR AND CUYAMA VALLEY


CITY           SKY/WX    TMP DP  RH WIND       PRES   REMARKS
*CUYAMA          N/A     40  35  83 CALM      29.83F
PASO ROBLES    CLOUDY    45  41  86 CALM      29.86S

$$

CAZ032-033-061-271400-
SOUTHERN DESERTS


CITY           SKY/WX    TMP DP  RH WIND       PRES   REMARKS
BLYTHE         CLEAR     51  32  48 W5        29.71S
IMPERIAL       CLEAR     52  39  61 CALM      29.70F
PALM SPRINGS   CLEAR     53  44  71 S5        29.72S
THERMAL        CLEAR     60  44  55 W6        29.70S

$$

ELSEWHERE ACROSS THE WESTERN UNITED STATES AND MEXICO


CITY           SKY/WX    TMP DP  RH WIND       PRES   REMARKS
DENVER, CO     PTCLDY    -5  -9  83 S10       30.01S WCI -23
GRAND CANYON,  MOCLDY    24  22  91 CALM      29.81S
HONOLULU, HI   PTCLDY    72  66  83 NW3       29.94F
KAHULUI, MAUI  CLEAR     66  63  88 S8        29.93F
LAKE TAHOE, CA CLOUDY    38  29  70 S5        29.81F WCI  34
LAS VEGAS, NV  PTCLDY    48  27  44 S9        29.74F
MAMMOTH LAKES, FAIR      28  19  69 CALM      29.80F
MEXICO CITY, M PTCLDY    52  32  46 NE7       30.20R
PHOENIX, AZ    PTCLDY    50  33  52 E8        29.73S
PORTLAND, OR   CLOUDY    47  47 100 E6        29.75S
RENO, NV       MOCLDY    39  23  52 CALM      29.80F
SALT LAKE CITY CLOUDY    31  25  78 S8        29.84S WCI  23
SAN DIEGO, CA  MOCLDY    58  49  72 E7        29.85S
SAN FRANCISCO, PTCLDY    55  52  89 W17G25    29.89F
SAN JOSE, CA   PTCLDY    52  48  86 W9        29.90F
SEATTLE, WA    LGT RAIN  46  44  93 NE8       29.72F
TIJUANA, MEX   MOCLDY    55  48  76 NE7       29.85

$$

STATION/POSITION TIME  TEMP    WIND        PRES    VSBY  WAVE
                       AIR SEA DIR/SP/G                  HT/PER
                 (UTC) (F)     (DEG/KT/KT) (MB)    (MI)  (FT/S)
POINT ARGUELLO B NOT AVBL
WEST SANTA BARBA 1300   58 59  320/ 23/ 27 1009.4S        10/ 9
POINT CONCEPTION NOT AVBL
EAST SANTA BARBA NOT AVBL
SANTA MONICA BAY 1300   60 63   90/  6/  6 1009.3R         3/ 6


USA.gov is the U.S. government's official web portal to all federal, state and local government web resources and services.